Wind_Speed
16 20 20 18 18 17 21 22 22 26 26 28 38 39 35 42 47 68 75 80 77 76 70 64 67 71 66 57 69 73 49 42 47 41 42 39 37 35 29 27 29 30 29 28
18 21 21 24 19 22 25 28 24 27 26 32 34 35 35 41 43 44 59 81 80 76 76 64 62 64 63 56 58 64 63 39 56 36 37 39 40 38 31 33 32 31 30 30
23 21 23 21 22 23 24 31 29 33 31 34 33 36 35 33 45 46 47 60 83 84 80 76 60 61 58 57 56 55 59 55 52 32 41 44 48 40 36 35 33 33 30 30
23 20 23 21 21 23 23 23 33 36 37 38 34 39 34 29 35 43 47 46 57 80 81 80 74 64 59 58 57 52 58 59 54 49 45 56 53 40 36 38 37 32 30 31
13 22 23 22 21 24 25 25 25 29 32 33 33 38 24 30 34 36 36 48 53 59 78 80 76 71 61 61 59 53 55 58 56 54 53 57 58 37 45 42 37 32 31 31
17 20 24 22 19 23 23 26 27 29 29 35 18 28 14 21 24 30 33 40 53 50 61 76 76 71 65 64 62 53 49 55 59 57 56 58 36 43 44 41 37 38 34 32
23 24 26 24 22 19 25 22 24 26 32 30 20 27 23 25 28 23 30 33 55 50 58 70 73 70 68 67 62 53 48 51 57 61 55 57 60 43 45 38 46 40 38 20
34 26 26 25 24 22 23 29 26 32 32 32 29 29 17 21 24 32 26 32 57 62 64 66 64 64 72 66 60 53 49 48 50 54 53 59 59 44 36 40 41 21 31 20
35 35 28 26 27 27 23 34 28 28 34 33 30 24 26 29 28 23 25 36 57 67 63 66 66 64 72 66 59 54 48 45 40 44 50 54 61 60 56 37 31 25 19 16
32 33 27 26 24 24 26 20 30 35 34 34 27 24 24 24 27 21 27 47 58 70 61 65 63 62 70 64 57 52 46 43 39 41 49 54 54 51 41 34 32 30 24 16
30 26 20 20 20 20 21 23 24 24 30 31 31 24 21 26 20 25 22 46 57 70 58 64 66 65 68 63 55 49 49 47 44 46 47 47 50 47 40 41 34 30 15 17
26 27 22 21 22 22 16 16 23 27 25 38 36 38 18 25 22 24 18 42 52 55 55 61 66 63 65 59 51 52 52 50 50 47 43 46 46 47 43 43 28 19 19 15
25 25 28 22 22 19 20 22 22 27 27 28 30 23 23 28 31 23 21 51 47 43 43 51 65 63 64 55 53 54 55 57 52 44 44 46 43 43 41 29 28 31 18 17
26 27 27 29 23 22 16 20 26 26 26 26 27 25 19 22 16 20 34 46 45 47 47 65 63 64 60 57 59 57 57 55 54 43 47 47 45 40 35 27 27 13 17 17
26 24 24 22 19 19 17 14 20 28 25 29 20 25 8 11 12 29 32 45 42 47 57 64 65 62 64 61 58 51 56 54 59 54 53 46 43 41 36 34 14 16 16 15
22 21 22 17 20 21 16 24 16 16 27 30 24 21 11 15 21 34 19 25 52 55 56 64 61 60 59 59 50 51 55 56 60 64 61 53 41 37 24 16 15 14 14 16
29 26 23 18 20 20 6 8 7 12 14 20 22 17 14 13 24 28 21 57 49 46 55 58 58 56 56 56 52 48 48 35 45 58 54 39 47 17 17 18 16 13 14 17
21 23 19 18 18 11 15 12 14 12 12 13 13 15 14 13 27 33 28 56 58 36 46 53 59 55 53 50 53 49 55 56 66 52 40 39 20 21 19 16 12 13 14 19
23 21 18 15 15 13 12 10 10 8 5 2 13 11 12 13 32 36 57 58 60 24 47 50 53 49 43 45 51 63 36 56 38 37 28 23 21 20 16 13 10 12 17 18
23 19 14 12 12 13 8 8 12 18 10 15 8 9 16 25 45 39 67 57 54 30 42 48 50 50 47 42 35 35 38 34 32 28 21 17 19 18 15 12 14 15 15 19
23 15 15 9 7 7 4 10 13 11 12 10 17 14 13 24 42 58 56 53 48 40 32 41 41 50 46 35 25 26 26 28 25 20 20 20 19 16 14 11 11 13 17 18
24 12 13 6 7 8 6 13 14 11 12 11 3 21 21 26 51 61 56 43 42 42 38 38 39 42 44 34 23 22 24 24 20 19 17 16 15 11 9 10 12 13 14 16
22 11 12 13 10 8 5 10 10 15 7 6 5 17 20 39 53 54 55 21 41 50 52 45 45 42 36 33 32 27 25 21 16 16 14 11 11 12 11 8 8 11 12 14
22 13 9 10 8 7 5 2 12 9 8 13 29 32 33 48 39 36 32 38 47 42 50 47 43 41 37 36 34 30 25 21 19 16 14 12 9 5 6 9 9 10 13 13
20 12 7 7 6 2 3 2 2 6 10 24 31 34 42 21 45 41 41 36 39 44 51 43 41 36 32 29 26 22 20 19 18 16 13 9 6 7 8 9 10 13 10 10
15 10 5 5 3 4 3 3 6 5 6 21 28 34 31 22 46 34 41 50 39 37 40 41 38 34 31 26 22 21 21 17 13 11 8 6 7 7 7 10 10 8 9 9
Wind_Direction
292 308 311 301 295 286 267 268 258 245 246 254 255 258 255 248 237 232 213 213 219 225 228 228 231 224 222 230 234 240 245 234 223 219 209 212 229 236 240 251 255 264 273 280
314 316 304 302 293 285 270 260 251 254 257 248 255 260 245 241 236 223 231 212 212 217 223 222 227 233 231 231 233 233 231 225 209 202 215 219 228 235 236 246 252 263 273 282
317 315 295 290 297 281 275 263 249 256 261 254 256 257 266 255 242 235 239 238 217 213 220 221 216 224 230 229 230 229 224 234 240 225 224 226 230 232 239 246 255 263 275 282
316 299 299 298 304 288 278 258 254 258 261 260 261 270 255 260 253 245 244 237 235 219 215 219 217 218 225 223 228 225 225 227 230 238 236 230 234 226 238 245 251 261 270 275
309 310 305 302 291 286 281 275 265 265 270 270 267 269 266 256 252 243 240 233 231 225 219 218 217 216 221 220 223 225 222 222 230 227 240 244 236 223 234 243 247 255 262 272
306 300 304 303 297 293 280 268 266 268 271 268 285 277 259 253 263 248 242 226 224 222 219 218 218 215 214 219 220 221 222 224 226 233 235 241 250 218 228 239 246 253 258 266
308 314 312 308 303 296 278 284 278 269 266 278 285 268 280 296 261 259 254 233 210 209 209 215 216 214 214 214 216 216 217 222 225 229 231 243 222 224 211 237 251 242 248 299
317 320 305 307 299 292 268 269 273 269 271 275 275 276 293 276 264 250 253 226 200 195 198 202 206 210 214 211 211 213 216 221 226 229 227 235 248 256 217 242 238 274 266 286
314 312 311 301 291 288 258 265 262 261 269 272 274 287 278 285 277 236 255 206 201 183 184 198 200 206 211 209 206 210 214 219 224 228 231 231 237 240 261 270 275 278 273 294
314 314 325 311 298 288 278 258 247 252 264 263 274 279 278 287 294 264 227 202 201 181 185 187 186 199 206 209 204 203 210 219 220 223 227 226 230 239 248 249 265 273 273 312
317 320 344 324 308 297 280 270 253 259 250 267 274 263 279 278 274 268 232 204 197 184 184 190 181 198 203 207 201 198 208 215 217 220 224 228 233 235 244 251 256 271 287 292
321 323 329 332 320 306 290 278 249 233 245 262 274 284 277 280 290 277 257 198 203 183 188 192 183 196 201 203 195 199 208 212 216 217 221 223 225 230 235 246 249 269 294 301
316 324 322 330 327 307 285 268 254 240 247 258 270 283 279 278 283 261 203 180 174 173 169 172 183 192 195 196 195 200 208 212 215 212 216 214 216 227 228 236 251 265 290 292
319 321 314 319 316 311 318 287 253 245 248 246 266 272 274 285 262 232 198 195 179 174 169 164 176 189 189 191 197 201 208 213 217 209 207 210 220 226 231 241 248 267 273 278
321 326 331 325 320 315 309 305 277 260 246 250 261 264 261 259 225 225 217 165 174 161 158 164 178 184 191 192 196 202 211 215 220 208 202 208 214 204 226 233 237 259 269 271
323 331 332 333 329 325 303 300 284 284 244 249 258 243 263 249 241 225 207 150 156 158 161 167 181 188 187 191 195 206 208 210 196 207 195 202 197 217 219 209 237 247 266 262
315 322 331 337 331 345 298 34 324 285 269 249 246 242 234 234 233 212 186 152 157 154 165 173 182 189 191 193 195 202 198 215 181 180 178 188 209 180 199 219 223 256 252 260
320 310 325 337 328 338 331 322 315 292 267 256 237 228 210 219 211 198 206 157 159 160 181 182 182 188 192 198 204 198 192 220 186 174 163 177 147 185 198 210 234 237 254 263
317 316 319 329 349 342 332 345 344 340 298 282 236 203 179 199 195 182 158 162 171 173 169 183 183 182 192 199 212 207 187 178 165 141 129 150 170 186 196 198 216 239 250 262
317 314 315 321 328 335 345 347 341 325 300 283 260 201 172 180 182 180 167 169 173 174 168 166 176 183 191 183 181 154 152 149 129 128 140 162 179 181 186 196 215 236 255 264
335 302 292 315 327 326 351 340 352 351 7 337 204 184 193 185 182 176 168 171 170 183 159 154 173 179 189 189 172 145 144 120 123 142 169 178 177 178 183 201 226 249 263 275
345 320 272 301 344 330 317 344 356 350 335 263 246 210 222 204 177 182 178 163 167 177 167 173 169 173 182 179 172 137 132 141 161 173 173 176 177 175 190 224 243 262 277 286
348 324 284 302 301 304 322 347 6 355 344 320 163 158 178 177 168 172 170 159 156 154 181 172 166 165 156 161 155 156 156 170 171 170 174 172 177 192 213 239 269 279 291 302
344 330 286 302 328 313 323 244 19 20 6 114 131 147 155 164 170 166 150 146 164 155 154 160 153 156 161 163 167 166 168 169 170 175 176 186 196 213 245 266 299 301 306 311
336 327 290 282 296 334 8 118 10 86 99 132 137 144 151 156 183 182 172 180 141 152 154 152 148 156 164 171 168 167 171 175 179 180 187 194 212 246 279 305 302 311 311 315
341 341 299 263 277 216 129 6 74 134 150 140 148 153 175 163 180 185 175 168 147 143 148 154 155 159 165 167 174 171 174 174 176 184 192 220 253 294 294 300 309 312 319 319
Height
5678 5677 5675 5673 5670 5670 5669 5669 5669 5672 5675 5675 5674 5675 5677 5682 5683 5688 5700 5720 5732 5743 5756 5767 5771 5773 5778 5794 5795 5799 5820 5834 5832 5829 5834 5842 5857 5864 5874 5871 5872 5875 5876 5877
5675 5672 5669 5665 5664 5664 5664 5662 5665 5666 5668 5669 5667 5666 5667 5671 5673 5676 5681 5698 5714 5729 5740 5756 5762 5766 5772 5785 5790 5805 5815 5792 5775 5804 5831 5833 5844 5856 5864 5861 5865 5868 5870 5871
5669 5668 5664 5662 5660 5658 5658 5656 5657 5658 5661 5660 5658 5656 5661 5665 5666 5671 5676 5683 5699 5709 5724 5740 5753 5760 5767 5777 5782 5791 5805 5805 5780 5809 5830 5825 5833 5847 5854 5855 5859 5862 5866 5864
5665 5662 5659 5657 5656 5653 5650 5652 5651 5650 5650 5650 5653 5647 5652 5655 5655 5660 5666 5670 5677 5699 5708 5720 5741 5750 5759 5771 5777 5785 5795 5804 5802 5812 5818 5823 5831 5842 5845 5847 5851 5857 5857 5857
5663 5656 5654 5652 5650 5647 5645 5644 5644 5644 5642 5642 5644 5640 5641 5645 5644 5648 5652 5658 5664 5679 5696 5708 5722 5742 5752 5762 5772 5781 5789 5798 5806 5815 5820 5818 5808 5830 5835 5840 5844 5847 5849 5852
5656 5654 5648 5646 5644 5640 5639 5637 5636 5637 5637 5633 5639 5636 5629 5636 5636 5635 5638 5641 5652 5665 5682 5698 5713 5731 5743 5751 5764 5776 5786 5794 5804 5813 5817 5807 5787 5809 5826 5833 5835 5839 5846 5848
5651 5646 5641 5638 5636 5635 5632 5630 5629 5628 5627 5626 5629 5626 5624 5628 5624 5626 5627 5629 5636 5655 5669 5684 5699 5717 5732 5739 5757 5770 5781 5790 5796 5806 5815 5811 5774 5804 5813 5824 5827 5834 5839 5844
5638 5639 5634 5631 5628 5627 5625 5625 5623 5620 5620 5620 5619 5616 5620 5617 5616 5614 5615 5618 5626 5642 5656 5670 5685 5708 5718 5734 5750 5765 5775 5782 5789 5799 5806 5806 5799 5809 5810 5817 5824 5832 5835 5836
5631 5628 5627 5623 5620 5620 5621 5618 5618 5614 5612 5611 5611 5613 5610 5607 5605 5602 5604 5609 5616 5632 5646 5659 5677 5693 5712 5726 5744 5758 5769 5777 5785 5792 5798 5803 5803 5807 5811 5817 5819 5826 5828 5830
5626 5619 5621 5616 5612 5611 5607 5608 5607 5607 5604 5600 5602 5604 5602 5602 5597 5597 5597 5600 5608 5621 5634 5649 5669 5685 5710 5722 5736 5752 5764 5773 5780 5783 5785 5789 5796 5808 5817 5816 5821 5824 5824 5826
5619 5616 5616 5609 5605 5602 5600 5597 5598 5599 5598 5596 5594 5597 5596 5594 5592 5588 5589 5597 5598 5609 5624 5645 5663 5682 5702 5715 5731 5748 5755 5763 5769 5771 5776 5787 5796 5806 5808 5814 5818 5822 5820 5824
5615 5609 5608 5606 5600 5595 5593 5592 5591 5590 5593 5592 5589 5586 5588 5586 5585 5584 5582 5589 5600 5606 5613 5632 5658 5678 5693 5712 5730 5738 5747 5754 5756 5763 5773 5780 5789 5796 5804 5809 5813 5814 5817 5819
5612 5606 5599 5598 5596 5592 5588 5587 5585 5584 5584 5584 5583 5582 5583 5580 5578 5579 5577 5585 5593 5602 5609 5625 5652 5669 5689 5712 5723 5731 5737 5740 5749 5761 5767 5773 5782 5791 5797 5801 5807 5809 5812 5815
5605 5601 5597 5592 5589 5585 5583 5580 5579 5578 5578 5578 5577 5577 5580 5576 5574 5573 5575 5582 5589 5600 5603 5619 5646 5664 5690 5704 5709 5719 5726 5735 5744 5756 5761 5771 5778 5786 5793 5797 5801 5804 5809 5809
5602 5597 5592 5588 5585 5581 5578 5576 5574 5570 5573 5572 5576 5573 5577 5573 5573 5572 5571 5578 5591 5599 5611 5629 5642 5661 5677 5694 5703 5714 5720 5729 5733 5746 5754 5762 5770 5779 5789 5793 5795 5801 5803 5800
5599 5594 5590 5584 5581 5577 5573 5571 5568 5567 5567 5567 5568 5571 5572 5575 5573 5570 5575 5579 5596 5605 5619 5629 5647 5659 5675 5688 5702 5710 5714 5720 5714 5721 5745 5753 5765 5776 5783 5790 5793 5795 5794 5797
5594 5590 5587 5583 5579 5573 5568 5567 5566 5564 5562 5561 5563 5569 5571 5573 5569 5574 5580 5594 5603 5615 5623 5630 5645 5660 5675 5688 5700 5707 5706 5707 5710 5713 5734 5749 5764 5769 5780 5786 5790 5789 5788 5792
5591 5586 5584 5582 5577 5573 5570 5567 5564 5562 5560 5560 5561 5565 5568 5570 5568 5580 5586 5595 5604 5603 5626 5632 5645 5660 5674 5685 5693 5695 5710 5711 5705 5718 5732 5751 5759 5771 5779 5783 5782 5783 5783 5788
5587 5582 5580 5578 5575 5573 5568 5566 5564 5562 5560 5559 5560 5560 5565 5566 5571 5579 5589 5598 5600 5598 5620 5636 5651 5662 5674 5685 5689 5694 5701 5708 5712 5724 5734 5753 5763 5770 5773 5773 5775 5778 5781 5782
5583 5579 5578 5576 5573 5570 5568 5566 5563 5561 5560 5558 5558 5560 5564 5567 5575 5583 5588 5599 5602 5604 5622 5636 5651 5664 5672 5680 5690 5695 5695 5703 5715 5729 5741 5753 5760 5765 5767 5770 5772 5776 5774 5778
5580 5576 5574 5574 5573 5571 5568 5566 5563 5560 5560 5552 5556 5559 5562 5565 5573 5586 5592 5603 5611 5616 5626 5638 5651 5664 5673 5680 5683 5690 5698 5708 5722 5736 5746 5755 5760 5761 5762 5763 5765 5769 5772 5775
5577 5573 5571 5572 5572 5571 5568 5566 5564 5560 5555 5552 5552 5555 5557 5561 5572 5584 5597 5605 5614 5621 5631 5638 5648 5661 5675 5683 5689 5693 5705 5720 5732 5740 5746 5752 5754 5755 5756 5759 5765 5768 5769 5769
5577 5573 5571 5571 5572 5571 5570 5568 5563 5559 5555 5551 5553 5554 5558 5565 5581 5593 5603 5604 5611 5627 5632 5646 5658 5666 5675 5685 5695 5706 5716 5725 5731 5737 5743 5748 5747 5751 5754 5758 5761 5764 5764 5764
5576 5572 5570 5570 5570 5570 5570 5568 5566 5562 5559 5556 5557 5560 5568 5581 5591 5598 5606 5610 5620 5623 5637 5651 5661 5672 5681 5690 5700 5709 5719 5727 5732 5736 5738 5740 5744 5749 5753 5755 5758 5760 5761 5759
5575 5571 5570 5569 5569 5569 5570 5569 5569 5568 5567 5567 5567 5571 5578 5589 5597 5606 5612 5616 5624 5635 5648 5659 5667 5677 5687 5696 5704 5711 5718 5723 5729 5734 5739 5743 5745 5747 5751 5753 5755 5756 5756 5755
5572 5570 5569 5568 5568 5569 5571 5571 5570 5571 5571 5574 5580 5584 5588 5591 5599 5606 5610 5625 5638 5647 5655 5665 5674 5685 5695 5703 5709 5716 5721 5727 5730 5734 5737 5740 5743 5747 5750 5752 5752 5752 5751 5751